Find Starlink 5559

NORAD ID: 56335 Int'l Des: 2023-058 Owner: SPXS Country: US Constellation: starlink operational
LEOCIRCULARRETROGRADESSO

当前视图

正在加载3D地球...

About Starlink 5559

Starlink 5559 (NORAD 56335) is a starlink constellation satellite (v1.5) launched Apr 27, 2023 by SPXS of US. It operates in LEO, CIRCULAR, RETROGRADE, SSO orbit with a mass of 300.00 kg.

关于 Starlink 5559

正在加载描述...

即将过境

Passes for default location (London). Set your location on the main map for personalized predictions.

高度历史

Loading altitude history...

两行轨道根数

1 56335U 23058U 26192.52566994 -.00000186 00000-0 -90083-5 0 9998
2 56335 97.2848 191.4107 0002136 88.6413 271.5059 15.05655199176837
Epoch: Jul 11, 2026 • Age: 14 hours

当前状态

高度 569.9 km
远地点 / 近地点 N/A
速度 7.57 km/s
星下点 -49.50°S, 37.49°E
发射日期 Apr 27, 2023
运行时间 3.2 years
类型 internet

技术详情

分类 Payload
质量 300.00 kg
干质量 260.00 kg
总质量 300.00 kg
长度 0.20 m
直径 2.80 m
跨度 9.00 m
形状 Box + pan
制造商 SPXS
平台类型 Starlink
阶段状态 In Orbit
所有者/国家 SPXS/US

Most Searched